When you browse on this site, cookies collect data to enhance your experience and personalize the content and advertising you see.
Visit our Privacy Policy to learn more. By continuing to use the site, you agree to this use of cookies and data.
  • In Lithuania
  • List of Countries
  • For 7 days
  • Water Temperature
  • Satellite Maps
  • Weather Map
  • Weather Widgets
  • user-avatar
    Login

    Hourly Weather Phuket

    Today, 19 December, Wednesday

    Time Temperature Precipitation Wind Pressure Humidity
    00:00 +26°C° 0.1 mm 6 mps 755 mmHg 94%
    01:00 +26°C° 0 mm 6 mps 755 mmHg 94%
    02:00 +26°C° 0 mm 6 mps 754 mmHg 94%
    03:00 +26°C° 0 mm 6 mps 754 mmHg 94%
    04:00 +26°C° 0 mm 6 mps 754 mmHg 94%
    05:00 +26°C° 0.7 mm 6 mps 754 mmHg 94%
    06:00 +26°C° 0.7 mm 6 mps 755 mmHg 93%
    07:00 +26°C° 0 mm 5 mps 755 mmHg 93%
    08:00 +27°C° 0.7 mm 5 mps 755 mmHg 88%
    09:00 +29°C° 0.7 mm 5 mps 755 mmHg 82%
    10:00 +30°C° 0.7 mm 5 mps 756 mmHg 77%
    11:00 +32°C° 1.2 mm 5 mps 755 mmHg 76%
    12:00 +32°C° 1.2 mm 4 mps 755 mmHg 76%
    13:00 +33°C° 0 mm 3 mps 755 mmHg 76%
    14:00 +31°C° 1.1 mm 3 mps 754 mmHg 79%
    15:00 +31°C° 1.1 mm 3 mps 754 mmHg 82%
    16:00 +30°C° 1.1 mm 2 mps 753 mmHg 85%
    17:00 +29°C° 0.5 mm 3 mps 754 mmHg 87%
    18:00 +28°C° 0.5 mm 3 mps 754 mmHg 88%
    19:00 +27°C° 0.5 mm 3 mps 754 mmHg 90%
    20:00 +27°C° 0.4 mm 4 mps 755 mmHg 91%
    21:00 +27°C° 0.4 mm 4 mps 755 mmHg 92%
    22:00 +26°C° 0.4 mm 5 mps 756 mmHg 93%
    23:00 +26°C° 0.2 mm 5 mps 756 mmHg 94%

    Tomorrow, 20 December, Thursday

    Time Temperature Precipitation Wind Pressure Humidity
    00:00 +26°C° 0.2 mm 5 mps 756 mmHg 94%
    01:00 +26°C° 0.2 mm 5 mps 756 mmHg 94%
    02:00 +26°C° 0 mm 5 mps 755 mmHg 94%
    03:00 +26°C° 0 mm 5 mps 755 mmHg 95%
    04:00 +26°C° 0 mm 5 mps 754 mmHg 95%
    05:00 +26°C° 0.2 mm 5 mps 755 mmHg 94%
    06:00 +26°C° 0.2 mm 5 mps 755 mmHg 94%
    07:00 +26°C° 0.2 mm 5 mps 755 mmHg 94%
    08:00 +27°C° 0 mm 5 mps 755 mmHg 87%
    09:00 +29°C° 0 mm 5 mps 756 mmHg 81%
    10:00 +32°C° 0 mm 4 mps 756 mmHg 74%
    11:00 +33°C° 0 mm 4 mps 756 mmHg 70%
    12:00 +34°C° 0 mm 3 mps 755 mmHg 66%
    13:00 +35°C° 0 mm 3 mps 755 mmHg 61%
    14:00 +34°C° 0.2 mm 2 mps 754 mmHg 66%
    15:00 +32°C° 0.2 mm 2 mps 753 mmHg 71%
    16:00 +32°C° 0.2 mm 1 mps 752 mmHg 76%
    17:00 +30°C° 0.8 mm 1 mps 753 mmHg 80%
    18:00 +29°C° 0.8 mm 1 mps 753 mmHg 85%
    19:00 +28°C° 0.8 mm 1 mps 753 mmHg 89%
    20:00 +27°C° 1.3 mm 1 mps 754 mmHg 90%
    21:00 +27°C° 1.3 mm 2 mps 754 mmHg 91%
    22:00 +27°C° 1.3 mm 2 mps 755 mmHg 92%
    23:00 +27°C° 1.4 mm 2 mps 755 mmHg 93%

    Day after tomorrow, 21 December, Friday

    Time Temperature Precipitation Wind Pressure Humidity
    00:00 +26°C° 1.4 mm 2 mps 755 mmHg 94%
    01:00 +26°C° 1.4 mm 2 mps 754 mmHg 94%
    02:00 +26°C° 0.4 mm 2 mps 754 mmHg 94%
    03:00 +26°C° 0.4 mm 3 mps 754 mmHg 95%
    04:00 +26°C° 0.4 mm 3 mps 753 mmHg 95%
    05:00 +26°C° 0 mm 3 mps 754 mmHg 95%
    06:00 +26°C° 0 mm 3 mps 754 mmHg 95%
    07:00 +26°C° 0 mm 2 mps 754 mmHg 94%
    08:00 +28°C° 0.2 mm 2 mps 755 mmHg 85%
    09:00 +30°C° 0.2 mm 2 mps 755 mmHg 76%
    10:00 +32°C° 0.2 mm 2 mps 756 mmHg 67%
    11:00 +33°C° 0.4 mm 1 mps 755 mmHg 62%
    12:00 +35°C° 0.4 mm 1 mps 755 mmHg 57%
    13:00 +36°C° 0.4 mm 1 mps 754 mmHg 51%
    14:00 +35°C° 0.4 mm 2 mps 753 mmHg 62%
    15:00 +32°C° 0.4 mm 2 mps 753 mmHg 72%
    16:00 +30°C° 0.4 mm 2 mps 752 mmHg 83%
    17:00 +29°C° 0.3 mm 2 mps 752 mmHg 85%
    18:00 +28°C° 0.3 mm 2 mps 753 mmHg 87%
    19:00 +27°C° 0.3 mm 2 mps 753 mmHg 88%
    20:00 +27°C° 0.3 mm 2 mps 754 mmHg 89%
    21:00 +27°C° 0.3 mm 3 mps 754 mmHg 89%
    22:00 +27°C° 0.3 mm 3 mps 755 mmHg 89%
    23:00 +26°C° 0 mm 3 mps 754 mmHg 90%

    22 December, Saturday

    Time Temperature Precipitation Wind Pressure Humidity
    00:00 +26°C° 0 mm 3 mps 754 mmHg 90%
    01:00 +26°C° 0 mm 3 mps 754 mmHg 91%
    02:00 +26°C° 0 mm 2 mps 753 mmHg 92%
    03:00 +26°C° 0 mm 2 mps 753 mmHg 92%
    04:00 +25°C° 0 mm 2 mps 752 mmHg 93%
    05:00 +25°C° 0 mm 2 mps 753 mmHg 93%
    06:00 +25°C° 0 mm 2 mps 753 mmHg 93%
    07:00 +25°C° 0 mm 2 mps 754 mmHg 93%
    08:00 +28°C° 0 mm 2 mps 754 mmHg 84%
    09:00 +30°C° 0 mm 2 mps 755 mmHg 74%
    10:00 +32°C° 0 mm 2 mps 755 mmHg 65%
    11:00 +34°C° 0 mm 2 mps 755 mmHg 61%
    12:00 +35°C° 0 mm 2 mps 754 mmHg 56%
    13:00 +36°C° 0 mm 2 mps 753 mmHg 52%
    14:00 +35°C° 0.1 mm 3 mps 753 mmHg 58%
    15:00 +34°C° 0.1 mm 3 mps 752 mmHg 64%
    16:00 +33°C° 0.1 mm 4 mps 751 mmHg 70%
    17:00 +30°C° 0.3 mm 4 mps 752 mmHg 77%
    18:00 +29°C° 0.3 mm 4 mps 752 mmHg 83%
    19:00 +27°C° 0.3 mm 4 mps 753 mmHg 90%
    20:00 +27°C° 0.4 mm 4 mps 753 mmHg 90%
    21:00 +27°C° 0.4 mm 4 mps 754 mmHg 91%
    22:00 +27°C° 0.4 mm 4 mps 755 mmHg 92%
    23:00 +27°C° 0 mm 4 mps 754 mmHg 92%

    23 December, Sunday

    Time Temperature Precipitation Wind Pressure Humidity
    00:00 +26°C° 0 mm 3 mps 754 mmHg 93%
    01:00 +26°C° 0 mm 3 mps 754 mmHg 94%
    02:00 +26°C° 0 mm 3 mps 753 mmHg 94%
    03:00 +26°C° 0 mm 3 mps 753 mmHg 94%
    04:00 +25°C° 0 mm 3 mps 752 mmHg 95%
    05:00 +25°C° 0 mm 3 mps 753 mmHg 95%
    06:00 +25°C° 0 mm 3 mps 753 mmHg 94%
    07:00 +25°C° 0 mm 2 mps 754 mmHg 94%
    08:00 +28°C° 0 mm 2 mps 754 mmHg 84%
    09:00 +30°C° 0 mm 2 mps 754 mmHg 75%
    10:00 +32°C° 0 mm 1 mps 755 mmHg 65%
    11:00 +33°C° 0 mm 1 mps 754 mmHg 60%
    12:00 +35°C° 0 mm 1 mps 753 mmHg 56%
    13:00 +36°C° 0 mm 1 mps 753 mmHg 51%
    14:00 +35°C° 0 mm 2 mps 752 mmHg 58%
    15:00 +34°C° 0 mm 2 mps 752 mmHg 64%
    16:00 +33°C° 0 mm 3 mps 751 mmHg 71%
    17:00 +30°C° 0.2 mm 3 mps 752 mmHg 77%
    18:00 +29°C° 0.2 mm 3 mps 752 mmHg 84%
    19:00 +27°C° 0.2 mm 4 mps 752 mmHg 90%
    20:00 +27°C° 0.3 mm 4 mps 753 mmHg 90%
    21:00 +27°C° 0.3 mm 4 mps 754 mmHg 90%
    22:00 +27°C° 0.3 mm 4 mps 754 mmHg 91%
    23:00 +27°C° 0.1 mm 3 mps 754 mmHg 91%

    24 December, Monday

    Time Temperature Precipitation Wind Pressure Humidity
    00:00 +27°C° 0.1 mm 3 mps 753 mmHg 92%
    01:00 +26°C° 0.1 mm 3 mps 753 mmHg 92%
    02:00 +26°C° 0 mm 3 mps 753 mmHg 93%
    03:00 +26°C° 0 mm 3 mps 752 mmHg 93%
    04:00 +26°C° 0 mm 3 mps 752 mmHg 94%
    05:00 +26°C° 0 mm 3 mps 753 mmHg 94%
    06:00 +26°C° 0 mm 3 mps 753 mmHg 94%
    07:00 +26°C° 0 mm 3 mps 753 mmHg 93%
    08:00 +28°C° 0 mm 2 mps 754 mmHg 83%
    09:00 +30°C° 0 mm 2 mps 754 mmHg 73%
    10:00 +32°C° 0 mm 2 mps 755 mmHg 63%
    11:00 +34°C° 0 mm 2 mps 754 mmHg 58%
    12:00 +36°C° 0 mm 2 mps 753 mmHg 53%
    13:00 +37°C° 0 mm 2 mps 753 mmHg 48%
    14:00 +35°C° 0.1 mm 3 mps 752 mmHg 56%
    15:00 +34°C° 0.1 mm 3 mps 752 mmHg 63%
    16:00 +32°C° 0.1 mm 4 mps 751 mmHg 71%
    17:00 +30°C° 0.2 mm 4 mps 752 mmHg 77%
    18:00 +29°C° 0.2 mm 4 mps 752 mmHg 84%
    19:00 +27°C° 0.2 mm 4 mps 752 mmHg 90%
    20:00 +27°C° 0.1 mm 4 mps 753 mmHg 90%
    21:00 +27°C° 0.1 mm 3 mps 753 mmHg 90%
    22:00 +27°C° 0.1 mm 3 mps 754 mmHg 90%
    23:00 +27°C° 0.2 mm 3 mps 753 mmHg 91%
    Show more